[[{"header":{"parameterUnit":"m.s-1","parameterCategory":1,"la1":30.2992,"la2":30.254,"lo1":-89.0895,"lo2":-89.0443,"dy":0.0025,"dx":0.0025,"nx":19,"ny":19,"refTime":"2026-03-26T09:00:00:Z","depth":0,"parameterNumber":2,"parameterNumberName":"U-component_of_WINDS"},"data":[0,0,0,-0.1335,-0.1336,-0.1363,-0.1363,-0.1399,-0.1399,0,0,0,0,0,0,0,0,0,0,0,-0.1328,-0.1328,-0.1335,-0.1336,-0.1363,-0.1363,-0.1399,-0.1399,0,0,0,0,0,0,0,0,0,0,0,-0.1328,-0.1328,-0.1328,-0.1336,-0.1363,-0.1363,-0.1399,-0.1378,0,0,0,0,0,0,0,0,0,0,-0.1351,-0.1345,-0.1328,-0.1328,-0.1336,-0.1363,-0.1363,-0.1377,-0.1379,-0.1387,0,-0.1394,0,-0.1397,-0.1401,-0.1402,0,0,0,-0.1335,-0.1343,-0.135,-0.1328,-0.1336,-0.1363,-0.1351,-0.1378,-0.1381,-0.139,-0.1394,-0.1396,-0.1397,-0.1402,-0.1402,-0.1446,-0.1447,0,0,-0.1334,-0.1333,-0.1348,-0.1351,-0.1347,-0.135,-0.1351,-0.138,-0.1385,-0.1394,-0.1396,-0.1398,-0.1402,-0.1402,-0.1446,-0.1446,0,0,0,-0.133,-0.1332,-0.1338,-0.135,-0.1355,-0.1351,-0.1353,-0.1383,-0.1385,-0.1397,-0.1398,-0.1402,-0.1403,-0.1446,-0.1446,-0.1457,0,0,0,-0.1329,-0.133,-0.1337,-0.1337,-0.1354,-0.137,-0.1356,-0.1383,-0.1386,-0.1398,-0.1402,-0.1403,-0.1446,-0.1446,-0.1456,-0.1462,0,0,0,-0.1326,-0.1329,-0.1333,-0.1337,-0.1349,-0.1369,-0.1373,-0.1384,-0.1388,-0.1402,-0.1403,-0.1446,-0.1446,-0.1455,-0.1461,-0.1473,0,0,0,-0.1322,-0.1343,-0.1334,-0.1357,-0.1349,-0.1375,-0.1372,-0.1392,-0.1406,-0.1402,-0.1446,-0.1446,-0.1455,-0.146,-0.1473,-0.1484,-0.1489,0,0,-0.1348,-0.1346,-0.136,-0.1352,-0.138,-0.1371,-0.14,-0.1413,-0.1416,-0.1436,-0.1437,-0.1456,-0.1461,-0.1473,-0.1514,-0.1518,0,0,0,-0.1368,-0.1378,-0.1385,-0.1398,-0.1407,-0.1416,-0.1425,-0.1429,-0.1446,-0.1426,-0.1464,-0.1467,-0.1474,-0.148,-0.1483,-0.1489,-0.1449,-0.1449,-0.1449,-0.1405,-0.1405,-0.1428,-0.1431,-0.1443,-0.145,-0.146,-0.1467,-0.1465,-0.1474,-0.1481,-0.1505,-0.1511,-0.1514,-0.152,-0.1486,-0.1486,-0.1486,-0.1486,-0.1443,-0.1457,-0.1452,-0.1472,-0.1473,-0.149,-0.1497,-0.1494,-0.151,-0.1501,-0.1507,-0.1497,-0.1518,-0.1524,-0.1487,-0.1487,-0.1487,-0.1487,-0.1486,-0.1468,-0.1475,-0.1479,-0.1495,-0.1508,-0.151,-0.1525,-0.1524,-0.1524,-0.153,-0.1537,-0.1537,-0.1537,-0.1533,-0.1533,-0.1533,-0.1533,-0.1533,-0.1534,-0.1493,-0.1497,-0.1509,-0.152,-0.1526,-0.1535,-0.1541,-0.1548,-0.1555,-0.1554,-0.1554,-0.1551,-0.1519,-0.1512,-0.1535,-0.1535,-0.1534,-0.1534,-0.1534,-0.1533,-0.1523,-0.1543,-0.1549,-0.156,-0.1572,-0.157,-0.1584,-0.1589,-0.1596,-0.1591,-0.1567,-0.1566,-0.1563,-0.1557,-0.159,-0.159,-0.159,-0.1591,-0.1555,-0.1553,-0.1572,-0.1582,-0.1592,-0.1592,-0.1613,-0.1617,-0.162,-0.1623,-0.1617,-0.1609,-0.1606,-0.1606,-0.1603,-0.1597,-0.164,-0.164,-0.164,-0.158,-0.1578,-0.1597,-0.1599,-0.1607,-0.1613,-0.1633,-0.1645,-0.1646,-0.1642,-0.1625,-0.1623,-0.1609,-0.1605,-0.1602,-0.1597,-0.1586,0,0]},{"header":{"parameterUnit":"m.s-1","parameterCategory":1,"la1":30.2992,"la2":30.254,"lo1":-89.0895,"lo2":-89.0443,"dy":0.0025,"dx":0.0025,"nx":19,"ny":19,"refTime":"2026-03-26T09:00:00:Z","depth":0,"parameterNumber":3,"parameterNumberName":"V-component_of_WINDS"},"data":[0,0,0,-0.9188,-0.9186,-0.9105,-0.9105,-0.9019,-0.9018,0,0,0,0,0,0,0,0,0,0,0,-0.9222,-0.9222,-0.9188,-0.9186,-0.9106,-0.9105,-0.9019,-0.9018,0,0,0,0,0,0,0,0,0,0,0,-0.9223,-0.9222,-0.9222,-0.9186,-0.9106,-0.9105,-0.9019,-0.9074,0,0,0,0,0,0,0,0,0,0,-0.9149,-0.9192,-0.9222,-0.9222,-0.9186,-0.9106,-0.9105,-0.9076,-0.907,-0.9063,0,-0.9059,0,-0.9037,-0.9013,-0.9013,0,0,0,-0.9178,-0.9196,-0.9165,-0.9222,-0.9185,-0.9106,-0.914,-0.9073,-0.9066,-0.9055,-0.9058,-0.9054,-0.9036,-0.9013,-0.9013,-0.8997,-0.8998,0,0,-0.9183,-0.9213,-0.917,-0.9162,-0.9176,-0.9142,-0.9137,-0.9068,-0.9073,-0.9057,-0.9052,-0.9035,-0.9012,-0.9012,-0.8997,-0.8997,0,0,0,-0.9201,-0.9217,-0.9187,-0.9166,-0.915,-0.914,-0.9134,-0.9076,-0.9064,-0.9051,-0.9034,-0.9012,-0.9011,-0.8997,-0.8997,-0.9043,0,0,0,-0.9203,-0.9227,-0.9189,-0.9207,-0.9152,-0.9112,-0.9144,-0.9068,-0.906,-0.9034,-0.9012,-0.901,-0.8996,-0.8997,-0.9041,-0.9059,0,0,0,-0.9224,-0.923,-0.9222,-0.9209,-0.9176,-0.9112,-0.9096,-0.9066,-0.905,-0.9013,-0.901,-0.8996,-0.8997,-0.9039,-0.9056,-0.9065,0,0,0,-0.9255,-0.9263,-0.9223,-0.9225,-0.9176,-0.9142,-0.9096,-0.9068,-0.9042,-0.9012,-0.8996,-0.8997,-0.9038,-0.9054,-0.9063,-0.9078,-0.9087,0,0,-0.9282,-0.9267,-0.9266,-0.9228,-0.9209,-0.9151,-0.9138,-0.9084,-0.9052,-0.9017,-0.9017,-0.9042,-0.9056,-0.9065,-0.9127,-0.9134,0,0,0,-0.9285,-0.9285,-0.9273,-0.925,-0.921,-0.9178,-0.9123,-0.9103,-0.9072,-0.9041,-0.9046,-0.9054,-0.9057,-0.9063,-0.9069,-0.9071,-0.9001,-0.9001,-0.9001,-0.9367,-0.9327,-0.9323,-0.9273,-0.9252,-0.9196,-0.9175,-0.9139,-0.9103,-0.9105,-0.9094,-0.9137,-0.9145,-0.9149,-0.9152,-0.9099,-0.9099,-0.9099,-0.9099,-0.9404,-0.9397,-0.9351,-0.9331,-0.9288,-0.927,-0.9217,-0.9193,-0.917,-0.9141,-0.9143,-0.9116,-0.9159,-0.9159,-0.9102,-0.9102,-0.9101,-0.9101,-0.9101,-0.9453,-0.9443,-0.942,-0.9384,-0.936,-0.9309,-0.929,-0.9251,-0.9214,-0.9215,-0.92,-0.92,-0.9194,-0.9211,-0.9211,-0.9211,-0.9211,-0.9212,-0.9212,-0.9514,-0.9486,-0.9475,-0.9435,-0.9415,-0.9385,-0.933,-0.931,-0.9278,-0.9251,-0.9251,-0.9216,-0.9171,-0.9161,-0.9214,-0.9213,-0.9213,-0.9213,-0.9213,-0.9566,-0.9548,-0.9531,-0.9512,-0.9462,-0.9442,-0.9393,-0.9356,-0.9333,-0.9325,-0.929,-0.9263,-0.9245,-0.9239,-0.923,-0.9299,-0.9299,-0.9299,-0.9299,-0.9608,-0.9596,-0.957,-0.9542,-0.9511,-0.9465,-0.9447,-0.9405,-0.9358,-0.9342,-0.9327,-0.9312,-0.9308,-0.9292,-0.9285,-0.9277,-0.9355,-0.9355,-0.9355,-0.9638,-0.9621,-0.9613,-0.9568,-0.9526,-0.9491,-0.9473,-0.9444,-0.9387,-0.9357,-0.9329,-0.9327,-0.9302,-0.9296,-0.9265,-0.9256,-0.9239,0,0]}]]